Tiempo cada hora Barsove

Hoy, 4 Marzo, Jueves

Tiempo Temperatura Precipitaciones Viento Presión Humedad
00:00 +2°C° 0 mm 3 mps 769 mmHg 76%
01:00 +1°C° 0 mm 3 mps 769 mmHg 77%
02:00 +1°C° 0 mm 3 mps 769 mmHg 79%
03:00 +1°C° 0 mm 3 mps 768 mmHg 79%
04:00 +1°C° 0 mm 3 mps 768 mmHg 80%
05:00 0°C° 0 mm 3 mps 768 mmHg 80%
06:00 +1°C° 0 mm 3 mps 768 mmHg 76%
07:00 +2°C° 0 mm 3 mps 768 mmHg 72%
08:00 +3°C° 0 mm 4 mps 767 mmHg 68%
09:00 +5°C° 0 mm 4 mps 767 mmHg 61%
10:00 +6°C° 0 mm 4 mps 767 mmHg 54%
11:00 +9°C° 0 mm 3 mps 766 mmHg 47%
12:00 +10°C° 0 mm 4 mps 766 mmHg 45%
13:00 +10°C° 0 mm 4 mps 765 mmHg 44%
14:00 +11°C° 0 mm 4 mps 765 mmHg 43%
15:00 +10°C° 0 mm 4 mps 764 mmHg 46%
16:00 +8°C° 0 mm 5 mps 764 mmHg 50%
17:00 +7°C° 0 mm 5 mps 763 mmHg 54%
18:00 +6°C° 0 mm 5 mps 763 mmHg 59%
19:00 +5°C° 0 mm 4 mps 763 mmHg 64%
20:00 +4°C° 0 mm 4 mps 763 mmHg 69%
21:00 +4°C° 0 mm 4 mps 763 mmHg 71%
22:00 +3°C° 0 mm 4 mps 762 mmHg 73%
23:00 +3°C° 0 mm 4 mps 762 mmHg 74%

Mañana, 5 Marzo, Viernes

Tiempo Temperatura Precipitaciones Viento Presión Humedad
00:00 +3°C° 0 mm 4 mps 762 mmHg 75%
01:00 +1°C° 0 mm 4 mps 762 mmHg 75%
02:00 +1°C° 0 mm 4 mps 762 mmHg 75%
03:00 +1°C° 0 mm 4 mps 761 mmHg 76%
04:00 +1°C° 0 mm 4 mps 761 mmHg 76%
05:00 +1°C° 0 mm 4 mps 761 mmHg 77%
06:00 +3°C° 0 mm 4 mps 761 mmHg 75%
07:00 +4°C° 0 mm 4 mps 760 mmHg 72%
08:00 +5°C° 0 mm 4 mps 760 mmHg 70%
09:00 +7°C° 0 mm 4 mps 760 mmHg 63%
10:00 +10°C° 0 mm 4 mps 760 mmHg 56%
11:00 +13°C° 0 mm 5 mps 760 mmHg 48%
12:00 +13°C° 0 mm 6 mps 759 mmHg 47%
13:00 +14°C° 0 mm 6 mps 759 mmHg 45%
14:00 +15°C° 0 mm 7 mps 758 mmHg 43%
15:00 +14°C° 0 mm 7 mps 758 mmHg 48%
16:00 +11°C° 0 mm 6 mps 758 mmHg 54%
17:00 +10°C° 0 mm 6 mps 758 mmHg 60%
18:00 +9°C° 0 mm 6 mps 758 mmHg 65%
19:00 +8°C° 0 mm 6 mps 759 mmHg 71%
20:00 +7°C° 0 mm 5 mps 759 mmHg 77%
21:00 +7°C° 0 mm 5 mps 759 mmHg 78%
22:00 +7°C° 0 mm 5 mps 759 mmHg 80%
23:00 +6°C° 0 mm 5 mps 759 mmHg 82%

Pasado mañana, 6 Marzo, Sábado

Tiempo Temperatura Precipitaciones Viento Presión Humedad
00:00 +6°C° 0 mm 4 mps 760 mmHg 82%
01:00 +6°C° 0 mm 4 mps 760 mmHg 83%
02:00 +6°C° 0 mm 4 mps 760 mmHg 84%
03:00 +5°C° 0 mm 4 mps 760 mmHg 86%
04:00 +5°C° 0 mm 3 mps 760 mmHg 88%
05:00 +4°C° 0 mm 3 mps 760 mmHg 90%
06:00 +5°C° 0 mm 3 mps 760 mmHg 89%
07:00 +5°C° 0 mm 3 mps 761 mmHg 88%
08:00 +5°C° 0 mm 4 mps 761 mmHg 87%
09:00 +3°C° 0.1 mm 5 mps 762 mmHg 88%
10:00 +2°C° 0.1 mm 6 mps 762 mmHg 90%
11:00 0°C° 0.1 mm 7 mps 762 mmHg 92%
12:00 0°C° 0.3 mm 7 mps 763 mmHg 90%
13:00 -1°C° 0.3 mm 6 mps 763 mmHg 88%
14:00 0°C° 0.3 mm 5 mps 763 mmHg 86%
15:00 0°C° 0.1 mm 5 mps 764 mmHg 75%
16:00 +1°C° 0.1 mm 6 mps 764 mmHg 65%
17:00 +2°C° 0.1 mm 6 mps 765 mmHg 54%
18:00 +1°C° 0 mm 6 mps 765 mmHg 54%
19:00 -1°C° 0 mm 7 mps 766 mmHg 55%
20:00 -2°C° 0 mm 7 mps 767 mmHg 56%
21:00 -2°C° 0 mm 7 mps 768 mmHg 55%
22:00 -3°C° 0 mm 6 mps 768 mmHg 55%
23:00 -4°C° 0 mm 6 mps 769 mmHg 55%

7 Marzo, Domingo

Tiempo Temperatura Precipitaciones Viento Presión Humedad
00:00 -4°C° 0 mm 5 mps 769 mmHg 57%
01:00 -4°C° 0 mm 5 mps 769 mmHg 59%
02:00 -4°C° 0 mm 5 mps 769 mmHg 60%
03:00 -5°C° 0 mm 5 mps 769 mmHg 60%
04:00 -4°C° 0 mm 4 mps 769 mmHg 60%
05:00 -4°C° 0 mm 4 mps 770 mmHg 60%
06:00 -3°C° 0 mm 4 mps 770 mmHg 57%
07:00 -2°C° 0 mm 3 mps 770 mmHg 54%
08:00 -1°C° 0 mm 3 mps 770 mmHg 52%
09:00 0°C° 0 mm 3 mps 770 mmHg 46%
10:00 +1°C° 0 mm 4 mps 770 mmHg 41%
11:00 +3°C° 0 mm 4 mps 770 mmHg 36%
12:00 +3°C° 0 mm 4 mps 769 mmHg 37%
13:00 +2°C° 0 mm 5 mps 768 mmHg 37%
14:00 +3°C° 0 mm 5 mps 768 mmHg 37%
15:00 +2°C° 0 mm 5 mps 767 mmHg 41%
16:00 +2°C° 0 mm 5 mps 767 mmHg 45%
17:00 +1°C° 0 mm 6 mps 766 mmHg 49%
18:00 0°C° 0 mm 5 mps 766 mmHg 53%
19:00 -1°C° 0 mm 5 mps 766 mmHg 58%
20:00 -2°C° 0 mm 5 mps 766 mmHg 62%
21:00 -2°C° 0 mm 5 mps 765 mmHg 62%
22:00 -2°C° 0 mm 5 mps 765 mmHg 61%
23:00 -2°C° 0 mm 5 mps 765 mmHg 61%

8 Marzo, Lunes

Tiempo Temperatura Precipitaciones Viento Presión Humedad
00:00 -3°C° 0 mm 6 mps 765 mmHg 61%
01:00 -3°C° 0 mm 6 mps 764 mmHg 60%
02:00 -3°C° 0 mm 6 mps 764 mmHg 60%
03:00 -3°C° 0 mm 6 mps 763 mmHg 61%
04:00 -3°C° 0 mm 6 mps 763 mmHg 61%
05:00 -3°C° 0 mm 6 mps 763 mmHg 62%
06:00 -1°C° 0 mm 6 mps 763 mmHg 62%
07:00 0°C° 0 mm 7 mps 763 mmHg 61%
08:00 +2°C° 0 mm 7 mps 763 mmHg 61%
09:00 +3°C° 0 mm 7 mps 762 mmHg 63%
10:00 +3°C° 0 mm 7 mps 762 mmHg 64%
11:00 +4°C° 0 mm 7 mps 762 mmHg 66%
12:00 +5°C° 0 mm 7 mps 762 mmHg 62%
13:00 +5°C° 0 mm 7 mps 762 mmHg 58%
14:00 +6°C° 0 mm 8 mps 761 mmHg 54%
15:00 +5°C° 0 mm 7 mps 761 mmHg 56%
16:00 +5°C° 0 mm 7 mps 761 mmHg 58%
17:00 +4°C° 0 mm 6 mps 761 mmHg 60%
18:00 +3°C° 0 mm 6 mps 761 mmHg 65%
19:00 +2°C° 0 mm 6 mps 761 mmHg 70%
20:00 +1°C° 0 mm 5 mps 762 mmHg 74%
21:00 +1°C° 0 mm 5 mps 762 mmHg 77%
22:00 0°C° 0 mm 5 mps 762 mmHg 80%
23:00 0°C° 0 mm 5 mps 762 mmHg 83%

9 Marzo, Martes

Tiempo Temperatura Precipitaciones Viento Presión Humedad
00:00 0°C° 0 mm 5 mps 762 mmHg 84%
01:00 -1°C° 0 mm 4 mps 762 mmHg 84%
02:00 -1°C° 0 mm 4 mps 762 mmHg 84%
03:00 -1°C° 0 mm 4 mps 763 mmHg 85%
04:00 -2°C° 0 mm 4 mps 763 mmHg 86%
05:00 -2°C° 0 mm 4 mps 763 mmHg 87%
06:00 -1°C° 0 mm 4 mps 763 mmHg 82%
07:00 -1°C° 0 mm 4 mps 764 mmHg 76%
08:00 0°C° 0 mm 4 mps 764 mmHg 70%
09:00 +1°C° 0 mm 4 mps 765 mmHg 62%
10:00 +1°C° 0 mm 4 mps 765 mmHg 54%
11:00 +3°C° 0 mm 4 mps 765 mmHg 46%
12:00 +3°C° 0 mm 4 mps 765 mmHg 43%
13:00 +4°C° 0 mm 4 mps 765 mmHg 39%
14:00 +3°C° 0 mm 5 mps 765 mmHg 36%
15:00 +3°C° 0 mm 5 mps 766 mmHg 38%
16:00 +2°C° 0 mm 5 mps 766 mmHg 39%
17:00 +1°C° 0 mm 5 mps 766 mmHg 41%
18:00 0°C° 0 mm 5 mps 766 mmHg 45%
19:00 -1°C° 0 mm 5 mps 767 mmHg 49%
20:00 -2°C° 0 mm 5 mps 767 mmHg 53%
21:00 -2°C° 0 mm 5 mps 768 mmHg 55%
22:00 -2°C° 0 mm 5 mps 768 mmHg 57%
23:00 -4°C° 0 mm 5 mps 768 mmHg 60%
Mostrar más

Necesitamos Su Consentimiento

Meteoprog y nuestros Proveedores de Servicios pueden almacenar y acceder a sus datos personales como cookies, identificadores de dispositivo u otras tecnologías similares de su dispositivo y procesar dichos datos para personalizar contenido y anuncios, además de ofrecer funciones de redes sociales y analizar el tráfico.

  • Almacenar y/o acceder a información en su dispositivo

    Se puede almacenar o acceder a cookies, identificadores de dispositivo u otra información de su dispositivo para los fines anteriormente indicados.

  • Anuncios y contenido personalizados, medición de anuncios y contenido, percepciones del público, y desarrollo de productos

    Los anuncios y el contenido pueden personalizarse en base a su perfil. Se pueden añadir más datos para personalizar mejor los anuncios y contenidos. Se puede medir el rendimiento de los anuncios y contenidos. Se puede obtener la percepción sobre el público que ha visto los anuncios y contenidos. Dichos datos pueden usarse para desarrollar o mejorar la experiencia del usuario, sistemas y software.

Al hacer clic en ‘Estoy De Acuerdo’ usted permitirá el uso de las cookies, identificadores de dispositivo, balizas web u otras tecnologías similares indicadas. Su configuración puede cambiarse desde el navegador de su dispositivo.

Para ciertos fines, los intereses legítimos pueden ser considerados por encima del consentimiento. Puede leer más sobre ello en nuestra Política de Privacidad y Cookies.